"Period start","avg(HW err(1)/warn(2) (#))","avg(Visibility (m))","avg(Weather code (#))","avg(Precip intensity (mm/h))","min(HW err(1)/warn(2) (#))","max(HW err(1)/warn(2) (#))","std(HW err(1)/warn(2) (#))","med(HW err(1)/warn(2) (#))","min(Visibility (m))","max(Visibility (m))","std(Visibility (m))","med(Visibility (m))","min(Weather code (#))","max(Weather code (#))","std(Weather code (#))","med(Weather code (#))","min(Precip intensity (mm/h))","max(Precip intensity (mm/h))","std(Precip intensity (mm/h))","med(Precip intensity (mm/h))"
2017-07-08 00:00:00,2,34104,0,0.00,2,2,0,2,14611,50000,10235,35975,0,0,0,0,0.00,0.00,0.00,0.00
2017-07-08 00:10:00,2,38071,0,0.00,2,2,0,2,26970,49304,6128,38766,0,0,0,0,0.00,0.00,0.00,0.00
2017-07-08 00:20:00,2,43533,0,0.00,2,2,0,2,32556,50000,6772,45097,0,0,0,0,0.00,0.00,0.00,0.00
2017-07-08 00:30:00,2,34752,0,0.00,2,2,0,2,23198,50000,8271,32354,0,0,0,0,0.00,0.00,0.00,0.00
2017-07-08 00:40:00,2,35400,0,0.00,2,2,0,2,21378,50000,8762,33835,0,0,0,0,0.00,0.00,0.00,0.00
2017-07-08 00:50:00,2,45074,0,0.00,2,2,0,2,32013,50000,5587,47312,0,0,0,0,0.00,0.00,0.00,0.00
2017-07-08 01:00:00,2,44240,0,0.00,2,2,0,2,30537,50000,7245,48149,0,0,0,0,0.00,0.00,0.00,0.00
2017-07-08 01:10:00,2,38196,0,0.00,2,2,0,2,26659,50000,8262,36700,0,0,0,0,0.00,0.00,0.00,0.00
2017-07-08 01:20:00,2,38526,0,0.00,0,2,1,2,23468,50000,9995,40116,0,0,0,0,0.00,0.00,0.00,0.00
2017-07-08 01:30:00,1,41830,0,0.00,0,2,1,0,27625,50000,8070,44152,0,0,0,0,0.00,0.00,0.00,0.00
2017-07-08 01:40:00,0,39929,0,0.00,0,0,0,0,23581,50000,8797,42504,0,0,0,0,0.00,0.00,0.00,0.00
2017-07-08 01:50:00,0,47107,0,0.00,0,0,0,0,29400,50000,6127,50000,0,0,0,0,0.00,0.00,0.00,0.00
2017-07-08 02:00:00,0,40007,0,0.00,0,0,0,0,31911,50000,5951,39043,0,0,0,0,0.00,0.00,0.00,0.00
2017-07-08 02:10:00,1,43160,0,0.00,0,2,1,1,32047,50000,6782,44769,0,0,0,0,0.00,0.00,0.00,0.00
2017-07-08 02:20:00,2,37198,0,0.00,2,2,0,2,26667,49724,6806,37521,0,0,0,0,0.00,0.00,0.00,0.00
2017-07-08 02:30:00,1,37537,0,0.00,0,2,1,1,29184,48253,6009,36206,0,0,0,0,0.00,0.00,0.00,0.00
2017-07-08 02:40:00,0,42154,0,0.00,0,0,0,0,27017,50000,7542,44111,0,0,0,0,0.00,0.00,0.00,0.00
2017-07-08 02:50:00,0,39743,0,0.00,0,0,0,0,29394,50000,6255,40929,0,0,0,0,0.00,0.00,0.00,0.00
2017-07-08 03:00:00,0,41590,0,0.00,0,0,0,0,24282,50000,7426,42284,0,0,0,0,0.00,0.00,0.00,0.00
2017-07-08 03:10:00,0,46668,0,0.00,0,0,0,0,43233,50000,2532,45461,0,0,0,0,0.00,0.00,0.00,0.00
2017-07-08 03:20:00,0,41810,0,0.00,0,0,0,0,29728,50000,6038,43686,0,0,0,0,0.00,0.00,0.00,0.00
2017-07-08 03:30:00,0,42154,0,0.00,0,0,0,0,31977,49774,6540,42384,0,0,0,0,0.00,0.00,0.00,0.00
2017-07-08 03:40:00,0,40938,0,0.00,0,0,0,0,30880,49528,5741,40344,0,0,0,0,0.00,0.00,0.00,0.00
2017-07-08 03:50:00,0,43699,0,0.00,0,0,0,0,31012,50000,5966,45616,0,0,0,0,0.00,0.00,0.00,0.00
2017-07-08 04:00:00,0,42949,0,0.00,0,0,0,0,34749,50000,5349,44316,0,0,0,0,0.00,0.00,0.00,0.00
2017-07-08 04:10:00,0,47012,0,0.00,0,0,0,0,35372,50000,4821,50000,0,0,0,0,0.00,0.00,0.00,0.00
2017-07-08 04:20:00,0,45023,0,0.00,0,0,0,0,34535,50000,5633,47338,0,0,0,0,0.00,0.00,0.00,0.00
2017-07-08 04:30:00,0,46287,0,0.00,0,0,0,0,35766,50000,4802,49438,0,0,0,0,0.00,0.00,0.00,0.00
2017-07-08 04:40:00,0,46715,0,0.00,0,0,0,0,41869,50000,2688,45973,0,0,0,0,0.00,0.00,0.00,0.00
2017-07-08 04:50:00,0,47650,0,0.00,0,0,0,0,36962,50000,4317,50000,0,0,0,0,0.00,0.00,0.00,0.00
2017-07-08 05:00:00,0,47490,0,0.00,0,0,0,0,41944,50000,2984,49244,0,0,0,0,0.00,0.00,0.00,0.00
2017-07-08 05:10:00,0,48981,0,0.00,0,0,0,0,46553,50000,1383,50000,0,0,0,0,0.00,0.00,0.00,0.00
2017-07-08 05:20:00,0,48300,0,0.00,0,0,0,0,39934,50000,3043,49664,0,0,0,0,0.00,0.00,0.00,0.00
2017-07-08 05:30:00,0,48776,0,0.00,0,0,0,0,45724,50000,1575,49880,0,0,0,0,0.00,0.00,0.00,0.00
2017-07-08 05:40:00,0,49507,0,0.00,0,0,0,0,47696,50000,831,50000,0,0,0,0,0.00,0.00,0.00,0.00
2017-07-08 05:50:00,0,48086,0,0.00,0,0,0,0,44719,50000,1969,48504,0,0,0,0,0.00,0.00,0.00,0.00
2017-07-08 06:00:00,0,44156,0,0.00,0,0,0,0,32136,50000,6761,46917,0,0,0,0,0.00,0.00,0.00,0.00
2017-07-08 06:10:00,0,49107,0,0.00,0,0,0,0,47722,50000,859,49175,0,0,0,0,0.00,0.00,0.00,0.00
2017-07-08 06:20:00,0,49135,0,0.00,0,0,0,0,45418,50000,1522,50000,0,0,0,0,0.00,0.00,0.00,0.00
2017-07-08 06:30:00,0,48913,0,0.00,0,0,0,0,45721,50000,1690,50000,0,0,0,0,0.00,0.00,0.00,0.00
2017-07-08 06:40:00,0,47114,0,0.00,0,0,0,0,43000,50000,2312,47464,0,0,0,0,0.00,0.00,0.00,0.00
2017-07-08 06:50:00,0,48866,0,0.00,0,0,0,0,43489,50000,2049,50000,0,0,0,0,0.00,0.00,0.00,0.00
2017-07-08 07:00:00,0,48251,0,0.00,0,0,0,0,41951,50000,2308,48632,0,0,0,0,0.00,0.00,0.00,0.00
2017-07-08 07:10:00,0,48611,0,0.00,0,0,0,0,45098,50000,1908,49790,0,0,0,0,0.00,0.00,0.00,0.00
2017-07-08 07:20:00,0,47110,0,0.00,0,0,0,0,40895,50000,3647,49435,0,0,0,0,0.00,0.00,0.00,0.00
2017-07-08 07:30:00,0,48193,0,0.00,0,0,0,0,41524,50000,2848,50000,0,0,0,0,0.00,0.00,0.00,0.00
2017-07-08 07:40:00,0,42229,0,0.00,0,0,0,0,22601,50000,8656,45950,0,0,0,0,0.00,0.00,0.00,0.00
2017-07-08 07:50:00,0,49199,0,0.00,0,0,0,0,44656,50000,1611,50000,0,0,0,0,0.00,0.00,0.00,0.00
2017-07-08 08:00:00,0,47391,0,0.00,0,0,0,0,39986,50000,3569,49373,0,0,0,0,0.00,0.00,0.00,0.00
2017-07-08 08:10:00,0,48685,0,0.00,0,0,0,0,42406,50000,2669,50000,0,0,0,0,0.00,0.00,0.00,0.00
2017-07-08 08:20:00,0,47688,0,0.00,0,0,0,0,39100,50000,3274,49195,0,0,0,0,0.00,0.00,0.00,0.00
2017-07-08 08:30:00,0,44981,0,0.00,0,0,0,0,34902,50000,4785,46011,0,0,0,0,0.00,0.00,0.00,0.00
2017-07-08 08:40:00,0,49375,0,0.00,0,0,0,0,43749,50000,1875,50000,0,0,0,0,0.00,0.00,0.00,0.00
2017-07-08 08:50:00,0,49582,0,0.00,0,0,0,0,48260,50000,625,50000,0,0,0,0,0.00,0.00,0.00,0.00
2017-07-08 09:00:00,0,48201,0,0.00,0,0,0,0,41294,50000,2949,50000,0,0,0,0,0.00,0.00,0.00,0.00
2017-07-08 09:10:00,0,49855,0,0.00,0,0,0,0,49078,50000,304,50000,0,0,0,0,0.00,0.00,0.00,0.00
2017-07-08 09:20:00,0,49802,0,0.00,0,0,0,0,48951,50000,397,50000,0,0,0,0,0.00,0.00,0.00,0.00
2017-07-08 09:30:00,0,48410,0,0.00,0,0,0,0,37795,50000,3704,50000,0,0,0,0,0.00,0.00,0.00,0.00
2017-07-08 09:40:00,0,49375,0,0.00,0,0,0,0,46367,50000,1166,50000,0,0,0,0,0.00,0.00,0.00,0.00
2017-07-08 09:50:00,0,44629,0,0.00,0,0,0,0,22345,50000,9383,50000,0,0,0,0,0.00,0.00,0.00,0.00
2017-07-08 10:00:00,0,50000,0,0.00,0,0,0,0,50000,50000,0,50000,0,0,0,0,0.00,0.00,0.00,0.00
2017-07-08 10:10:00,0,30786,0,0.00,0,0,0,0,10911,50000,15926,31461,0,0,0,0,0.00,0.00,0.00,0.00
2017-07-08 10:20:00,0,41362,0,0.00,0,0,0,0,14123,50000,10718,44961,0,0,0,0,0.00,0.00,0.00,0.00
2017-07-08 10:30:00,0,41327,0,0.00,0,0,0,0,27845,50000,7293,43390,0,0,0,0,0.00,0.00,0.00,0.00
2017-07-08 10:40:00,0,49149,0,0.00,0,0,0,0,45159,50000,1697,50000,0,0,0,0,0.00,0.00,0.00,0.00
2017-07-08 10:50:00,0,48170,0,0.00,0,0,0,0,43332,50000,2513,49680,0,0,0,0,0.00,0.00,0.00,0.00
2017-07-08 11:00:00,0,48563,0,0.00,0,0,0,0,44547,50000,1978,50000,0,0,0,0,0.00,0.00,0.00,0.00
2017-07-08 11:10:00,0,49268,0,0.00,0,0,0,0,46584,50000,1256,50000,0,0,0,0,0.00,0.00,0.00,0.00
2017-07-08 11:20:00,0,47702,0,0.00,0,0,0,0,41536,50000,3139,50000,0,0,0,0,0.00,0.00,0.00,0.00
2017-07-08 11:30:00,0,49626,0,0.00,0,0,0,0,47797,50000,685,50000,0,0,0,0,0.00,0.00,0.00,0.00
2017-07-08 11:40:00,0,49961,0,0.00,0,0,0,0,49610,50000,117,50000,0,0,0,0,0.00,0.00,0.00,0.00
2017-07-08 11:50:00,0,46936,0,0.00,0,0,0,0,41570,50000,3345,48344,0,0,0,0,0.00,0.00,0.00,0.00
2017-07-08 12:00:00,0,47988,0,0.00,0,0,0,0,29880,50000,6036,50000,0,0,0,0,0.00,0.00,0.00,0.00
2017-07-08 12:10:00,0,40390,0,0.00,0,0,0,0,21406,50000,8161,41522,0,0,0,0,0.00,0.00,0.00,0.00
2017-07-08 12:20:00,0,49842,0,0.00,0,0,0,0,48425,50000,472,50000,0,0,0,0,0.00,0.00,0.00,0.00
2017-07-08 12:30:00,0,49872,0,0.00,0,0,0,0,48720,50000,384,50000,0,0,0,0,0.00,0.00,0.00,0.00
2017-07-08 12:40:00,0,50000,0,0.00,0,0,0,0,50000,50000,0,50000,0,0,0,0,0.00,0.00,0.00,0.00
2017-07-08 12:50:00,0,50000,0,0.00,0,0,0,0,50000,50000,0,50000,0,0,0,0,0.00,0.00,0.00,0.00
2017-07-08 13:00:00,0,50000,0,0.00,0,0,0,0,50000,50000,0,50000,0,0,0,0,0.00,0.00,0.00,0.00
2017-07-08 13:10:00,0,49818,0,0.00,0,0,0,0,48177,50000,547,50000,0,0,0,0,0.00,0.00,0.00,0.00
2017-07-08 13:20:00,0,50000,0,0.00,0,0,0,0,50000,50000,0,50000,0,0,0,0,0.00,0.00,0.00,0.00
2017-07-08 13:30:00,0,49520,0,0.00,0,0,0,0,47373,50000,964,50000,0,0,0,0,0.00,0.00,0.00,0.00
2017-07-08 13:40:00,0,50000,0,0.00,0,0,0,0,50000,50000,0,50000,0,0,0,0,0.00,0.00,0.00,0.00
2017-07-08 13:50:00,0,50000,0,0.00,0,0,0,0,50000,50000,0,50000,0,0,0,0,0.00,0.00,0.00,0.00
2017-07-08 14:00:00,0,50000,0,0.00,0,0,0,0,50000,50000,0,50000,0,0,0,0,0.00,0.00,0.00,0.00
2017-07-08 14:10:00,0,50000,0,0.00,0,0,0,0,50000,50000,0,50000,0,0,0,0,0.00,0.00,0.00,0.00
2017-07-08 14:20:00,0,50000,0,0.00,0,0,0,0,50000,50000,0,50000,0,0,0,0,0.00,0.00,0.00,0.00
2017-07-08 14:30:00,0,49959,0,0.00,0,0,0,0,49594,50000,122,50000,0,0,0,0,0.00,0.00,0.00,0.00
2017-07-08 14:40:00,0,50000,0,0.00,0,0,0,0,50000,50000,0,50000,0,0,0,0,0.00,0.00,0.00,0.00
2017-07-08 14:50:00,0,50000,0,0.00,0,0,0,0,50000,50000,0,50000,0,0,0,0,0.00,0.00,0.00,0.00
2017-07-08 15:00:00,0,50000,0,0.00,0,0,0,0,50000,50000,0,50000,0,0,0,0,0.00,0.00,0.00,0.00
2017-07-08 15:10:00,0,50000,0,0.00,0,0,0,0,50000,50000,0,50000,0,0,0,0,0.00,0.00,0.00,0.00
2017-07-08 15:20:00,0,50000,0,0.00,0,0,0,0,50000,50000,0,50000,0,0,0,0,0.00,0.00,0.00,0.00
2017-07-08 15:30:00,0,50000,0,0.00,0,0,0,0,50000,50000,0,50000,0,0,0,0,0.00,0.00,0.00,0.00
2017-07-08 15:40:00,0,49950,0,0.00,0,0,0,0,49504,50000,149,50000,0,0,0,0,0.00,0.00,0.00,0.00
2017-07-08 15:50:00,0,50000,0,0.00,0,0,0,0,50000,50000,0,50000,0,0,0,0,0.00,0.00,0.00,0.00
2017-07-08 16:00:00,0,49987,0,0.00,0,0,0,0,49868,50000,40,50000,0,0,0,0,0.00,0.00,0.00,0.00
2017-07-08 16:10:00,0,50000,0,0.00,0,0,0,0,50000,50000,0,50000,0,0,0,0,0.00,0.00,0.00,0.00
2017-07-08 16:20:00,0,50000,0,0.00,0,0,0,0,50000,50000,0,50000,0,0,0,0,0.00,0.00,0.00,0.00
2017-07-08 16:30:00,0,49803,0,0.00,0,0,0,0,48029,50000,591,50000,0,0,0,0,0.00,0.00,0.00,0.00
2017-07-08 16:40:00,0,49919,0,0.00,0,0,0,0,49188,50000,244,50000,0,0,0,0,0.00,0.00,0.00,0.00
2017-07-08 16:50:00,0,50000,0,0.00,0,0,0,0,50000,50000,0,50000,0,0,0,0,0.00,0.00,0.00,0.00
2017-07-08 17:00:00,0,50000,0,0.00,0,0,0,0,50000,50000,0,50000,0,0,0,0,0.00,0.00,0.00,0.00
2017-07-08 17:10:00,0,49992,0,0.00,0,0,0,0,49925,50000,22,50000,0,0,0,0,0.00,0.00,0.00,0.00
2017-07-08 17:20:00,0,50000,0,0.00,0,0,0,0,50000,50000,0,50000,0,0,0,0,0.00,0.00,0.00,0.00
2017-07-08 17:30:00,0,50000,0,0.00,0,0,0,0,50000,50000,0,50000,0,0,0,0,0.00,0.00,0.00,0.00
2017-07-08 17:40:00,0,50000,0,0.00,0,0,0,0,50000,50000,0,50000,0,0,0,0,0.00,0.00,0.00,0.00
2017-07-08 17:50:00,0,50000,0,0.00,0,0,0,0,50000,50000,0,50000,0,0,0,0,0.00,0.00,0.00,0.00
2017-07-08 18:00:00,0,50000,0,0.00,0,0,0,0,50000,50000,0,50000,0,0,0,0,0.00,0.00,0.00,0.00
2017-07-08 18:10:00,0,50000,0,0.00,0,0,0,0,50000,50000,0,50000,0,0,0,0,0.00,0.00,0.00,0.00
2017-07-08 18:20:00,0,49928,0,0.00,0,0,0,0,49297,50000,210,50000,0,0,0,0,0.00,0.00,0.00,0.00
2017-07-08 18:30:00,0,50000,0,0.00,0,0,0,0,50000,50000,0,50000,0,0,0,0,0.00,0.00,0.00,0.00
2017-07-08 18:40:00,0,50000,0,0.00,0,0,0,0,50000,50000,0,50000,0,0,0,0,0.00,0.00,0.00,0.00
2017-07-08 18:50:00,0,50000,0,0.00,0,0,0,0,50000,50000,0,50000,0,0,0,0,0.00,0.00,0.00,0.00
2017-07-08 19:00:00,0,49991,0,0.00,0,0,0,0,49910,50000,27,50000,0,0,0,0,0.00,0.00,0.00,0.00
2017-07-08 19:10:00,0,46802,0,0.00,0,0,0,0,18017,50000,9595,50000,0,0,0,0,0.00,0.00,0.00,0.00
2017-07-08 19:20:00,0,45380,0,0.00,0,0,0,0,24180,50000,8233,50000,0,0,0,0,0.00,0.00,0.00,0.00
2017-07-08 19:30:00,0,40968,0,0.00,0,0,0,0,19218,50000,12496,49928,0,0,0,0,0.00,0.00,0.00,0.00
2017-07-08 19:40:00,0,48803,0,0.00,0,0,0,0,39693,50000,3077,50000,0,0,0,0,0.00,0.00,0.00,0.00
2017-07-08 19:50:00,0,49963,0,0.00,0,0,0,0,49628,50000,112,50000,0,0,0,0,0.00,0.00,0.00,0.00
2017-07-08 20:00:00,0,49601,0,0.00,0,0,0,0,47608,50000,814,50000,0,0,0,0,0.00,0.00,0.00,0.00
2017-07-08 20:10:00,0,50000,0,0.00,0,0,0,0,50000,50000,0,50000,0,0,0,0,0.00,0.00,0.00,0.00
2017-07-08 20:20:00,0,49954,0,0.00,0,0,0,0,49541,50000,138,50000,0,0,0,0,0.00,0.00,0.00,0.00
2017-07-08 20:30:00,0,49947,0,0.00,0,0,0,0,49469,50000,159,50000,0,0,0,0,0.00,0.00,0.00,0.00
2017-07-08 20:40:00,0,50000,0,0.00,0,0,0,0,50000,50000,0,50000,0,0,0,0,0.00,0.00,0.00,0.00
2017-07-08 20:50:00,0,49216,0,0.00,0,0,0,0,47007,50000,1216,50000,0,0,0,0,0.00,0.00,0.00,0.00
2017-07-08 21:00:00,0,50000,0,0.00,0,0,0,0,50000,50000,0,50000,0,0,0,0,0.00,0.00,0.00,0.00
2017-07-08 21:10:00,0,50000,0,0.00,0,0,0,0,50000,50000,0,50000,0,0,0,0,0.00,0.00,0.00,0.00
2017-07-08 21:20:00,0,50000,0,0.00,0,0,0,0,50000,50000,0,50000,0,0,0,0,0.00,0.00,0.00,0.00
2017-07-08 21:30:00,1,49820,0,0.00,0,2,1,1,48690,50000,404,50000,0,0,0,0,0.00,0.00,0.00,0.00
2017-07-08 21:40:00,2,49702,0,0.00,0,2,1,2,48486,50000,595,50000,0,0,0,0,0.00,0.00,0.00,0.00
2017-07-08 21:50:00,1,49283,0,0.00,0,2,1,2,46258,50000,1169,50000,0,0,0,0,0.00,0.00,0.00,0.00
2017-07-08 22:00:00,0,50000,0,0.00,0,0,0,0,50000,50000,0,50000,0,0,0,0,0.00,0.00,0.00,0.00
2017-07-08 22:10:00,1,49924,0,0.00,0,2,1,2,49243,50000,227,50000,0,0,0,0,0.00,0.00,0.00,0.00
2017-07-08 22:20:00,2,50000,0,0.00,0,2,1,2,50000,50000,0,50000,0,0,0,0,0.00,0.00,0.00,0.00
2017-07-08 22:30:00,2,45421,0,0.00,0,2,1,2,37480,50000,5138,48611,0,0,0,0,0.00,0.00,0.00,0.00
2017-07-08 22:40:00,2,48000,0,0.00,2,2,0,2,43894,50000,2316,49225,0,0,0,0,0.00,0.00,0.00,0.00
2017-07-08 22:50:00,2,44300,0,0.00,2,2,0,2,31810,50000,6709,48294,0,0,0,0,0.00,0.00,0.00,0.00
2017-07-08 23:00:00,2,42990,0,0.00,2,2,0,2,32931,50000,6315,45408,0,0,0,0,0.00,0.00,0.00,0.00
2017-07-08 23:10:00,2,48332,0,0.00,2,2,0,2,41712,50000,2809,50000,0,0,0,0,0.00,0.00,0.00,0.00
2017-07-08 23:20:00,2,42641,0,0.00,2,2,0,2,33801,50000,5735,41982,0,0,0,0,0.00,0.00,0.00,0.00
2017-07-08 23:30:00,2,41446,0,0.00,2,2,0,2,24279,50000,8337,41980,0,0,0,0,0.00,0.00,0.00,0.00
2017-07-08 23:40:00,2,44699,0,0.00,2,2,0,2,28348,50000,7474,50000,0,0,0,0,0.00,0.00,0.00,0.00
2017-07-08 23:50:00,2,42274,0,0.00,2,2,0,2,25070,50000,7329,44040,0,0,0,0,0.00,0.00,0.00,0.00
